Regional Weather Roundup
Issued by NWS Goodland, KS

Home | Current Version | Previous Version | Text Only | Print | Product List | Glossary Off
Versions: 1 2 3 4 5 6 7 8 9 10 11 12 13 14 15 16 17 18 19 20 21 22 23 24 25 26 27 28 29 30 31 32 33 34 35 36 37 38 39 40 41 42 43 44 45 46 47 48 49 50

000
ASUS43 KGLD 280308
RWRGLD

GOODLAND FORECAST AREA HOURLY WEATHER ROUNDUP
NATIONAL WEATHER SERVICE GOODLAND KS
900 PM MDT SAT AUG 27 2016

...OFFICIAL OBSERVATIONS...

CITY           SKY/WX    TMP DP  RH WIND       PRES   REMARKS
GOODLAND KS    CLOUDY    70  59  68 S10       30.05R
HILL CITY KS   CLOUDY    72  66  81 SE6       30.03R
IMPERIAL NEB   CLEAR     68  61  78 SE8       30.04R
MCCOOK NEB     CLOUDY    72  65  78 E8        30.02R
AKRON CO       CLEAR     64  44  48 SE10      30.09R
BURLINGTON CO  CLEAR     67  56  67 S17       30.08R
LIMON CO       CLEAR     58  49  72 CALM      30.15R
$$

...UNOFFICIAL OBSERVATIONS...

CITY           SKY/WX    TMP DP  RH WIND       PRES   REMARKS
COLBY KS       CLEAR     77  63  61 S10G16    30.04S
LENORA KS        N/A     72  32  23 MISG        N/A
NORTON KS      CLEAR     73  63  68 E8        30.03R
SHARON SPRINGS   N/A     67  63  86 S8          N/A
TRENTON NEB      N/A     72  32  23 MISG        N/A
KIT CARSON CO    N/A     68  53  59 MISG        N/A
YUMA CO          N/A     63  55  74 SE5         N/A
$$




USA.gov is the U.S. government's official web portal to all federal, state and local government web resources and services.